Time,TemperatureF,DewpointF,PressureIn,WindDirection,WindDirectionDegrees,WindSpeedMPH,WindSpeedGustMPH,Humidity,HourlyPrecipIn,Conditions,Clouds,dailyrainin,SoftwareType,DateUTC
2013-06-03 00:00:00,63.3,54.9,29.18,NNW,340,0.0,0.0,74,0.00,,---,0.00,VWS V14.00,2013-06-03 05:00:00,
2013-06-03 00:02:00,63.1,54.7,29.18,NNW,342,0.0,0.0,74,0.00,,---,0.00,VWS V14.00,2013-06-03 05:02:00,
2013-06-03 00:05:00,63.1,54.7,29.18,North,353,0.0,0.0,74,0.00,,---,0.00,VWS V14.00,2013-06-03 05:05:00,
2013-06-03 00:08:00,63.1,54.7,29.18,NNW,348,0.0,0.0,74,0.00,,---,0.00,VWS V14.00,2013-06-03 05:08:00,
2013-06-03 00:11:00,63.1,54.7,29.18,North,353,0.0,0.0,74,0.00,,---,0.00,VWS V14.00,2013-06-03 05:11:00,
2013-06-03 00:14:00,63.1,54.7,29.18,North,350,0.0,0.0,74,0.00,,---,0.00,VWS V14.00,2013-06-03 05:14:00,
2013-06-03 00:17:00,62.9,54.5,29.18,North,349,0.0,0.0,74,0.00,,---,0.00,VWS V14.00,2013-06-03 05:17:00,
2013-06-03 00:20:00,62.9,54.9,29.18,North,349,0.0,0.0,75,0.00,,---,0.00,VWS V14.00,2013-06-03 05:20:00,
2013-06-03 00:23:00,62.8,54.7,29.18,North,353,0.0,0.0,75,0.00,,---,0.00,VWS V14.00,2013-06-03 05:23:00,
2013-06-03 00:26:00,62.8,54.7,29.18,North,353,0.0,0.0,75,0.00,,---,0.00,VWS V14.00,2013-06-03 05:26:00,
2013-06-03 00:29:00,62.8,54.7,29.18,North,0,0.0,0.0,75,0.00,,---,0.00,VWS V14.00,2013-06-03 05:29:00,
2013-06-03 00:30:00,62.8,54.7,29.18,North,0,0.0,0.0,75,0.00,,---,0.00,VWS V14.00,2013-06-03 05:30:00,
2013-06-03 00:32:00,62.8,54.7,29.18,North,353,0.0,0.0,75,0.00,,---,0.00,VWS V14.00,2013-06-03 05:32:00,
2013-06-03 00:35:00,62.8,55.1,29.18,North,353,0.0,0.0,76,0.00,,---,0.00,VWS V14.00,2013-06-03 05:35:00,
2013-06-03 00:38:00,62.8,55.1,29.18,North,353,0.0,0.0,76,0.00,,---,0.00,VWS V14.00,2013-06-03 05:38:00,
2013-06-03 00:41:00,62.8,55.1,29.18,North,357,0.0,0.0,76,0.00,,---,0.00,VWS V14.00,2013-06-03 05:41:00,
2013-06-03 00:45:00,62.8,55.5,29.18,North,353,0.0,0.0,77,0.00,,---,0.00,VWS V14.00,2013-06-03 05:45:00,
2013-06-03 00:47:00,62.8,55.5,29.18,North,353,0.0,0.0,77,0.00,,---,0.00,VWS V14.00,2013-06-03 05:47:00,
2013-06-03 00:50:00,62.8,55.8,29.18,North,353,0.0,0.0,78,0.00,,---,0.00,VWS V14.00,2013-06-03 05:50:00,
2013-06-03 00:53:00,62.8,55.8,29.18,North,353,0.0,0.0,78,0.00,,---,0.00,VWS V14.00,2013-06-03 05:53:00,
2013-06-03 00:59:00,62.8,55.8,29.18,NNW,343,0.0,0.0,78,0.00,,---,0.00,VWS V14.00,2013-06-03 05:59:00,
2013-06-03 01:05:00,62.9,56.0,29.18,NNW,345,0.0,0.0,78,0.00,,---,0.00,VWS V14.00,2013-06-03 06:05:00,
2013-06-03 01:08:00,62.9,56.0,29.18,NNW,340,0.0,0.0,78,0.00,,---,0.00,VWS V14.00,2013-06-03 06:08:00,
2013-06-03 01:11:00,62.9,56.0,29.18,NNW,342,0.0,0.0,78,0.00,,---,0.00,VWS V14.00,2013-06-03 06:11:00,
2013-06-03 01:14:00,62.8,55.8,29.18,NNW,344,0.0,0.0,78,0.00,,---,0.00,VWS V14.00,2013-06-03 06:14:00,
2013-06-03 01:15:00,62.8,55.8,29.18,NNW,344,0.0,0.0,78,0.00,,---,0.00,VWS V14.00,2013-06-03 06:15:00,
2013-06-03 01:17:00,62.8,55.8,29.18,NNW,344,0.0,0.0,78,0.00,,---,0.00,VWS V14.00,2013-06-03 06:17:00,
2013-06-03 01:23:00,62.4,55.5,29.18,NNW,342,0.0,0.0,78,0.00,,---,0.00,VWS V14.00,2013-06-03 06:23:00,
2013-06-03 01:26:00,62.2,55.3,29.18,NNW,346,0.0,0.0,78,0.00,,---,0.00,VWS V14.00,2013-06-03 06:26:00,
2013-06-03 01:29:00,62.0,55.5,29.18,NNW,346,0.0,0.0,79,0.00,,---,0.00,VWS V14.00,2013-06-03 06:29:00,
2013-06-03 01:32:00,61.9,55.3,29.18,North,353,0.0,0.0,79,0.00,,---,0.00,VWS V14.00,2013-06-03 06:32:00,
2013-06-03 01:38:00,61.7,55.1,29.18,NNW,344,0.0,0.0,79,0.00,,---,0.00,VWS V14.00,2013-06-03 06:38:00,
2013-06-03 01:44:00,61.3,54.8,29.18,NNW,343,0.0,0.0,79,0.00,,---,0.00,VWS V14.00,2013-06-03 06:44:00,
2013-06-03 01:45:00,61.3,54.8,29.18,NNW,342,0.0,0.0,79,0.00,,---,0.00,VWS V14.00,2013-06-03 06:45:00,
2013-06-03 01:47:00,61.3,54.8,29.18,North,357,0.0,0.0,79,0.00,,---,0.00,VWS V14.00,2013-06-03 06:47:00,
2013-06-03 01:50:00,61.1,54.9,29.18,North,353,0.0,0.0,80,0.00,,---,0.00,VWS V14.00,2013-06-03 06:50:00,
2013-06-03 01:53:00,61.0,54.8,29.18,North,353,0.0,0.0,80,0.00,,---,0.00,VWS V14.00,2013-06-03 06:53:00,
2013-06-03 01:56:00,61.0,54.8,29.18,NNW,340,0.0,0.0,80,0.00,,---,0.00,VWS V14.00,2013-06-03 06:56:00,
2013-06-03 02:00:00,60.8,54.9,29.18,NNW,340,0.0,0.0,81,0.00,,---,0.00,VWS V14.00,2013-06-03 07:00:00,
2013-06-03 02:02:00,60.6,54.8,29.18,North,349,0.0,0.0,81,0.00,,---,0.00,VWS V14.00,2013-06-03 07:02:00,
2013-06-03 02:05:00,60.6,54.8,29.18,North,349,0.0,0.0,81,0.00,,---,0.00,VWS V14.00,2013-06-03 07:05:00,
2013-06-03 02:11:00,60.4,54.9,29.15,NNW,346,0.0,0.0,82,0.00,,---,0.00,VWS V14.00,2013-06-03 07:11:00,
2013-06-03 02:14:00,60.4,55.2,29.15,NNW,346,0.0,0.0,83,0.00,,---,0.00,VWS V14.00,2013-06-03 07:14:00,
2013-06-03 02:15:00,60.4,55.2,29.15,NNW,346,0.0,0.0,83,0.00,,---,0.00,VWS V14.00,2013-06-03 07:15:00,
2013-06-03 02:17:00,60.2,55.1,29.15,North,353,0.0,0.0,83,0.00,,---,0.00,VWS V14.00,2013-06-03 07:17:00,
2013-06-03 02:20:00,60.2,55.1,29.15,North,353,0.0,0.0,83,0.00,,---,0.00,VWS V14.00,2013-06-03 07:20:00,
2013-06-03 02:26:00,60.1,54.9,29.15,NNW,346,0.0,0.0,83,0.00,,---,0.00,VWS V14.00,2013-06-03 07:26:00,
2013-06-03 02:29:00,60.1,54.9,29.15,North,353,0.0,0.0,83,0.00,,---,0.00,VWS V14.00,2013-06-03 07:29:00,
2013-06-03 02:30:00,60.1,54.9,29.15,North,349,0.0,0.0,83,0.00,,---,0.00,VWS V14.00,2013-06-03 07:30:00,
2013-06-03 02:32:00,59.9,54.7,29.15,North,349,0.0,0.0,83,0.00,,---,0.00,VWS V14.00,2013-06-03 07:32:00,
2013-06-03 02:35:00,59.9,54.7,29.15,NNW,346,0.0,0.0,83,0.00,,---,0.00,VWS V14.00,2013-06-03 07:35:00,
2013-06-03 02:38:00,59.7,54.9,29.15,NNW,346,0.0,0.0,84,0.00,,---,0.00,VWS V14.00,2013-06-03 07:38:00,
2013-06-03 02:41:00,59.7,54.9,29.15,North,349,0.0,0.0,84,0.00,,---,0.00,VWS V14.00,2013-06-03 07:41:00,
2013-06-03 02:44:00,59.7,54.9,29.15,North,349,0.0,0.0,84,0.00,,---,0.00,VWS V14.00,2013-06-03 07:44:00,
2013-06-03 02:51:00,59.5,54.7,29.15,North,349,0.0,0.0,84,0.00,,---,0.00,VWS V14.00,2013-06-03 07:51:00,
2013-06-03 02:54:00,59.5,54.7,29.18,North,349,0.0,0.0,84,0.00,,---,0.00,VWS V14.00,2013-06-03 07:54:00,
2013-06-03 02:57:00,59.5,54.7,29.18,North,349,0.0,0.0,84,0.00,,---,0.00,VWS V14.00,2013-06-03 07:57:00,
2013-06-03 03:00:00,59.5,54.7,29.18,North,349,0.0,0.0,84,0.00,,---,0.00,VWS V14.00,2013-06-03 08:00:00,
2013-06-03 03:03:00,59.5,54.7,29.18,North,349,0.0,0.0,84,0.00,,---,0.00,VWS V14.00,2013-06-03 08:03:00,
2013-06-03 03:06:00,59.5,55.0,29.18,North,349,0.0,0.0,85,0.00,,---,0.00,VWS V14.00,2013-06-03 08:06:00,
2013-06-03 03:09:00,59.5,55.0,29.18,North,349,0.0,0.0,85,0.00,,---,0.00,VWS V14.00,2013-06-03 08:09:00,
2013-06-03 03:12:00,59.5,55.0,29.18,North,349,0.0,0.0,85,0.00,,---,0.00,VWS V14.00,2013-06-03 08:12:00,
2013-06-03 03:15:00,59.7,55.2,29.18,North,349,0.0,0.0,85,0.00,,---,0.00,VWS V14.00,2013-06-03 08:15:00,
2013-06-03 03:21:00,59.7,55.2,29.18,North,349,0.0,0.0,85,0.00,,---,0.00,VWS V14.00,2013-06-03 08:21:00,
2013-06-03 03:27:00,59.7,55.5,29.18,North,349,0.0,0.0,86,0.00,,---,0.00,VWS V14.00,2013-06-03 08:27:00,
2013-06-03 03:30:00,59.7,55.5,29.18,North,349,0.0,0.0,86,0.00,,---,0.00,VWS V14.00,2013-06-03 08:30:00,
2013-06-03 03:33:00,59.9,55.7,29.18,North,349,0.0,0.0,86,0.00,,---,0.00,VWS V14.00,2013-06-03 08:33:00,
2013-06-03 03:36:00,59.9,55.7,29.18,North,349,0.0,0.0,86,0.00,,---,0.00,VWS V14.00,2013-06-03 08:36:00,
2013-06-03 03:39:00,59.9,55.7,29.18,North,349,0.0,0.0,86,0.00,,---,0.00,VWS V14.00,2013-06-03 08:39:00,
2013-06-03 03:42:00,59.9,55.7,29.18,North,349,0.0,0.0,86,0.00,,---,0.00,VWS V14.00,2013-06-03 08:42:00,
2013-06-03 03:45:00,60.1,55.9,29.18,North,349,0.0,0.0,86,0.00,,---,0.00,VWS V14.00,2013-06-03 08:45:00,
2013-06-03 03:48:00,60.1,55.9,29.18,North,349,0.0,0.0,86,0.00,,---,0.00,VWS V14.00,2013-06-03 08:48:00,
2013-06-03 03:51:00,60.1,55.9,29.18,North,349,0.0,0.0,86,0.00,,---,0.00,VWS V14.00,2013-06-03 08:51:00,
2013-06-03 03:54:00,60.2,56.0,29.18,North,349,0.0,0.0,86,0.00,,---,0.00,VWS V14.00,2013-06-03 08:54:00,
2013-06-03 03:57:00,60.2,56.0,29.18,North,349,0.0,0.0,86,0.00,,---,0.00,VWS V14.00,2013-06-03 08:57:00,
2013-06-03 04:00:00,60.2,56.0,29.18,North,349,0.0,0.0,86,0.00,,---,0.00,VWS V14.00,2013-06-03 09:00:00,
2013-06-03 04:06:00,60.4,55.9,29.18,North,349,0.0,0.0,85,0.00,,---,0.00,VWS V14.00,2013-06-03 09:06:00,
2013-06-03 04:09:00,60.6,55.8,29.18,North,349,0.0,0.0,84,0.00,,---,0.00,VWS V14.00,2013-06-03 09:09:00,
2013-06-03 04:15:00,60.6,55.8,29.18,North,349,0.0,0.0,84,0.00,,---,0.00,VWS V14.00,2013-06-03 09:15:00,
2013-06-03 04:18:00,60.6,55.8,29.18,North,349,0.0,0.0,84,0.00,,---,0.00,VWS V14.00,2013-06-03 09:18:00,
2013-06-03 04:21:00,60.6,55.8,29.18,North,349,0.0,0.0,84,0.00,,---,0.00,VWS V14.00,2013-06-03 09:21:00,
2013-06-03 04:27:00,60.6,55.4,29.18,North,349,0.0,0.0,83,0.00,,---,0.00,VWS V14.00,2013-06-03 09:27:00,
2013-06-03 04:33:00,60.8,55.9,29.18,North,349,0.0,0.0,84,0.00,,---,0.00,VWS V14.00,2013-06-03 09:33:00,
2013-06-03 04:36:00,60.8,55.6,29.18,NNW,344,0.0,0.0,83,0.00,,---,0.00,VWS V14.00,2013-06-03 09:36:00,
2013-06-03 04:39:00,60.8,55.6,29.21,NNW,344,0.0,0.0,83,0.00,,---,0.00,VWS V14.00,2013-06-03 09:39:00,
2013-06-03 04:45:00,60.8,55.6,29.21,North,353,0.0,0.0,83,0.00,,---,0.00,VWS V14.00,2013-06-03 09:45:00,
2013-06-03 04:48:00,60.8,55.6,29.21,North,353,0.0,0.0,83,0.00,,---,0.00,VWS V14.00,2013-06-03 09:48:00,
2013-06-03 04:51:00,60.8,55.6,29.21,North,353,0.0,0.0,83,0.00,,---,0.00,VWS V14.00,2013-06-03 09:51:00,
2013-06-03 04:57:00,60.8,55.6,29.21,North,353,0.0,0.0,83,0.00,,---,0.00,VWS V14.00,2013-06-03 09:57:00,
2013-06-03 05:00:00,60.8,55.6,29.21,North,353,0.0,0.0,83,0.00,,---,0.00,VWS V14.00,2013-06-03 10:00:00,
2013-06-03 05:03:00,60.8,55.6,29.21,North,353,0.0,0.0,83,0.00,,---,0.00,VWS V14.00,2013-06-03 10:03:00,
2013-06-03 05:09:00,60.8,55.6,29.21,North,353,0.0,0.0,83,0.00,,---,0.00,VWS V14.00,2013-06-03 10:09:00,
2013-06-03 05:15:00,60.8,55.6,29.21,NNW,348,0.0,0.0,83,0.00,,---,0.00,VWS V14.00,2013-06-03 10:15:00,
2013-06-03 05:18:00,60.8,55.6,29.21,North,353,0.0,0.0,83,0.00,,---,0.00,VWS V14.00,2013-06-03 10:18:00,
2013-06-03 05:21:00,60.8,55.6,29.21,North,353,0.0,0.0,83,0.00,,---,0.00,VWS V14.00,2013-06-03 10:21:00,
2013-06-03 05:27:00,60.6,55.4,29.21,NNW,348,0.0,0.0,83,0.00,,---,0.00,VWS V14.00,2013-06-03 10:27:00,
2013-06-03 05:30:00,60.6,55.4,29.21,NNW,343,0.0,2.7,83,0.00,,---,0.00,VWS V14.00,2013-06-03 10:30:00,
2013-06-03 05:33:00,60.6,55.1,29.21,North,350,0.0,2.7,82,0.00,,---,0.00,VWS V14.00,2013-06-03 10:33:00,
2013-06-03 05:36:00,60.6,55.1,29.21,NNW,342,0.0,2.7,82,0.00,,---,0.00,VWS V14.00,2013-06-03 10:36:00,
2013-06-03 05:39:00,60.6,55.1,29.21,NNW,343,0.0,2.7,82,0.00,,---,0.00,VWS V14.00,2013-06-03 10:39:00,
2013-06-03 05:42:00,60.4,54.9,29.21,NNW,341,0.0,2.7,82,0.00,,---,0.00,VWS V14.00,2013-06-03 10:42:00,
2013-06-03 05:45:00,60.4,54.9,29.21,NNW,348,0.0,2.7,82,0.00,,---,0.00,VWS V14.00,2013-06-03 10:45:00,
2013-06-03 05:48:00,60.4,55.2,29.21,NNW,348,0.0,0.0,83,0.00,,---,0.00,VWS V14.00,2013-06-03 10:48:00,
2013-06-03 05:51:00,60.4,55.2,29.21,NNW,348,0.0,0.0,83,0.00,,---,0.00,VWS V14.00,2013-06-03 10:51:00,
2013-06-03 05:54:00,60.4,55.2,29.21,NNW,348,0.0,0.0,83,0.00,,---,0.00,VWS V14.00,2013-06-03 10:54:00,
2013-06-03 05:57:00,60.6,55.1,29.21,North,353,0.0,0.0,82,0.00,,---,0.00,VWS V14.00,2013-06-03 10:57:00,
2013-06-03 06:00:00,60.6,55.4,29.21,North,353,0.0,0.0,83,0.00,,---,0.00,VWS V14.00,2013-06-03 11:00:00,
2013-06-03 06:03:00,60.4,55.2,29.21,North,353,0.0,0.0,83,0.00,,---,0.00,VWS V14.00,2013-06-03 11:03:00,
2013-06-03 06:06:00,60.4,55.2,29.21,NNW,346,0.0,0.0,83,0.00,,---,0.00,VWS V14.00,2013-06-03 11:06:00,
2013-06-03 06:09:00,60.4,55.2,29.23,NNW,345,0.0,0.0,83,0.00,,---,0.00,VWS V14.00,2013-06-03 11:09:00,
2013-06-03 06:12:00,60.6,55.4,29.23,NNW,346,0.0,0.0,83,0.00,,---,0.00,VWS V14.00,2013-06-03 11:12:00,
2013-06-03 06:15:00,60.6,55.4,29.23,North,357,0.0,0.0,83,0.00,,---,0.00,VWS V14.00,2013-06-03 11:15:00,
2013-06-03 06:21:00,60.6,55.4,29.23,North,353,0.0,3.1,83,0.00,,---,0.00,VWS V14.00,2013-06-03 11:21:00,
2013-06-03 06:24:00,60.6,55.4,29.23,North,353,2.7,3.1,83,0.00,,---,0.00,VWS V14.00,2013-06-03 11:24:00,
2013-06-03 06:27:00,60.4,55.2,29.23,NNW,344,0.0,3.6,83,0.00,,---,0.00,VWS V14.00,2013-06-03 11:27:00,
2013-06-03 06:30:00,60.2,55.1,29.23,NNW,345,0.0,2.7,83,0.00,,---,0.00,VWS V14.00,2013-06-03 11:30:00,
2013-06-03 06:33:00,60.2,54.7,29.23,NNW,345,0.0,3.1,82,0.00,,---,0.00,VWS V14.00,2013-06-03 11:33:00,
2013-06-03 06:36:00,60.1,54.9,29.23,NNW,334,0.0,3.1,83,0.00,,---,0.00,VWS V14.00,2013-06-03 11:36:00,
2013-06-03 06:40:00,60.1,54.9,29.23,North,353,0.0,3.1,83,0.00,,---,0.00,VWS V14.00,2013-06-03 11:40:00,
2013-06-03 06:43:00,59.9,54.7,29.23,North,350,0.0,3.1,83,0.00,,---,0.00,VWS V14.00,2013-06-03 11:43:00,
2013-06-03 06:46:00,59.9,54.7,29.23,NNW,344,0.0,0.0,83,0.00,,---,0.00,VWS V14.00,2013-06-03 11:46:00,
2013-06-03 06:49:00,60.1,54.9,29.23,North,350,0.0,0.0,83,0.00,,---,0.00,VWS V14.00,2013-06-03 11:49:00,
2013-06-03 06:52:00,60.1,54.9,29.23,NNW,344,0.0,2.2,83,0.00,,---,0.00,VWS V14.00,2013-06-03 11:52:00,
2013-06-03 06:55:00,60.2,55.1,29.23,NNW,338,0.0,2.2,83,0.00,,---,0.00,VWS V14.00,2013-06-03 11:55:00,
2013-06-03 06:58:00,60.2,55.1,29.23,NNW,342,0.0,2.2,83,0.00,,---,0.00,VWS V14.00,2013-06-03 11:58:00,
2013-06-03 07:00:00,60.6,55.4,29.23,NNW,342,0.0,2.2,83,0.00,,---,0.00,VWS V14.00,2013-06-03 12:00:00,
2013-06-03 07:01:00,60.8,55.6,29.23,NNW,342,0.0,0.0,83,0.00,,---,0.00,VWS V14.00,2013-06-03 12:01:00,
2013-06-03 07:04:00,61.0,55.8,29.23,NNW,342,0.0,0.0,83,0.00,,---,0.00,VWS V14.00,2013-06-03 12:04:00,
2013-06-03 07:07:00,61.1,55.9,29.23,NNW,343,0.0,0.0,83,0.00,,---,0.00,VWS V14.00,2013-06-03 12:07:00,
2013-06-03 07:10:00,61.3,55.8,29.23,NNW,343,0.0,0.0,82,0.00,,---,0.00,VWS V14.00,2013-06-03 12:10:00,
2013-06-03 07:15:00,61.3,55.8,29.23,NNW,344,0.0,0.0,82,0.00,,---,0.00,VWS V14.00,2013-06-03 12:15:00,
2013-06-03 07:16:00,61.5,56.0,29.23,NNW,344,0.0,0.0,82,0.00,,---,0.00,VWS V14.00,2013-06-03 12:16:00,
2013-06-03 07:19:00,61.7,56.1,29.23,North,353,0.0,0.0,82,0.00,,---,0.00,VWS V14.00,2013-06-03 12:19:00,
2013-06-03 07:22:00,61.7,56.1,29.23,North,353,0.0,0.0,82,0.00,,---,0.00,VWS V14.00,2013-06-03 12:22:00,
2013-06-03 07:28:00,62.0,56.5,29.21,North,353,0.0,0.0,82,0.00,,---,0.00,VWS V14.00,2013-06-03 12:28:00,
2013-06-03 07:30:00,62.0,56.2,29.21,North,353,0.0,0.0,81,0.00,,---,0.00,VWS V14.00,2013-06-03 12:30:00,
2013-06-03 07:31:00,62.0,56.2,29.21,North,353,0.0,0.0,81,0.00,,---,0.00,VWS V14.00,2013-06-03 12:31:00,
2013-06-03 07:34:00,62.0,55.8,29.21,North,353,0.0,0.0,80,0.00,,---,0.00,VWS V14.00,2013-06-03 12:34:00,
2013-06-03 07:37:00,62.2,56.0,29.21,North,357,0.0,0.0,80,0.00,,---,0.00,VWS V14.00,2013-06-03 12:37:00,
2013-06-03 07:40:00,62.2,56.3,29.21,North,357,0.0,0.0,81,0.00,,---,0.00,VWS V14.00,2013-06-03 12:40:00,
2013-06-03 07:43:00,62.4,56.2,29.21,North,357,0.0,0.0,80,0.00,,---,0.00,VWS V14.00,2013-06-03 12:43:00,
2013-06-03 07:45:00,62.4,56.2,29.21,North,6,0.0,0.0,80,0.00,,---,0.00,VWS V14.00,2013-06-03 12:45:00,
2013-06-03 07:52:00,62.8,56.2,29.21,North,6,0.0,0.0,79,0.00,,---,0.00,VWS V14.00,2013-06-03 12:52:00,
2013-06-03 07:55:00,62.9,56.0,29.21,North,6,0.0,0.0,78,0.00,,---,0.00,VWS V14.00,2013-06-03 12:55:00,
2013-06-03 08:01:00,63.3,56.3,29.21,South,181,0.0,0.0,78,0.00,,---,0.00,VWS V14.00,2013-06-03 13:01:00,
2013-06-03 08:04:00,63.5,56.5,29.21,South,181,0.0,0.0,78,0.00,,---,0.00,VWS V14.00,2013-06-03 13:04:00,
2013-06-03 08:07:00,63.7,56.3,29.21,South,181,0.0,2.2,77,0.00,,---,0.00,VWS V14.00,2013-06-03 13:07:00,
2013-06-03 08:10:00,63.7,56.3,29.21,South,181,0.0,3.1,77,0.00,,---,0.00,VWS V14.00,2013-06-03 13:10:00,
2013-06-03 08:13:00,63.8,56.5,29.21,South,169,2.2,4.5,77,0.00,,---,0.00,VWS V14.00,2013-06-03 13:13:00,
2013-06-03 08:15:00,64.0,56.7,29.21,ESE,114,2.7,4.5,77,0.00,,---,0.00,VWS V14.00,2013-06-03 13:15:00,
2013-06-03 08:22:00,64.4,56.7,29.21,SSE,167,0.0,3.6,76,0.00,,---,0.00,VWS V14.00,2013-06-03 13:22:00,
2013-06-03 08:28:00,64.7,56.6,29.21,SSE,165,2.7,4.5,75,0.00,,---,0.00,VWS V14.00,2013-06-03 13:28:00,
2013-06-03 08:30:00,64.9,56.8,29.21,SSE,165,0.0,4.5,75,0.00,,---,0.00,VWS V14.00,2013-06-03 13:30:00,
2013-06-03 08:31:00,64.9,56.8,29.21,SSE,165,0.0,0.0,75,0.00,,---,0.00,VWS V14.00,2013-06-03 13:31:00,
2013-06-03 08:37:00,65.3,56.8,29.21,South,173,2.7,4.0,74,0.00,,---,0.00,VWS V14.00,2013-06-03 13:37:00,
2013-06-03 08:43:00,65.6,56.4,29.21,South,175,3.1,5.8,72,0.00,,---,0.00,VWS V14.00,2013-06-03 13:43:00,
2013-06-03 08:45:00,65.6,56.4,29.21,South,175,2.2,5.8,72,0.00,,---,0.00,VWS V14.00,2013-06-03 13:45:00,
2013-06-03 08:49:00,66.0,56.3,29.21,SSE,165,0.0,4.0,71,0.00,,---,0.00,VWS V14.00,2013-06-03 13:49:00,
2013-06-03 08:52:00,66.2,56.1,29.21,South,182,0.0,4.0,70,0.00,,---,0.00,VWS V14.00,2013-06-03 13:52:00,
2013-06-03 08:55:00,66.4,56.3,29.21,SSW,192,0.0,4.0,70,0.00,,---,0.00,VWS V14.00,2013-06-03 13:55:00,
2013-06-03 08:58:00,66.4,55.9,29.21,SSW,205,0.0,4.0,69,0.00,,---,0.00,VWS V14.00,2013-06-03 13:58:00,
2013-06-03 09:01:00,66.5,56.1,29.21,SSW,205,0.0,0.0,69,0.00,,---,0.00,VWS V14.00,2013-06-03 14:01:00,
2013-06-03 09:04:00,66.7,56.2,29.21,SSW,205,0.0,0.0,69,0.00,,---,0.00,VWS V14.00,2013-06-03 14:04:00,
2013-06-03 09:07:00,66.9,56.4,29.21,ENE,64,3.6,3.6,69,0.00,,---,0.00,VWS V14.00,2013-06-03 14:07:00,
2013-06-03 09:10:00,67.3,56.8,29.21,SSE,152,2.7,3.6,69,0.00,,---,0.00,VWS V14.00,2013-06-03 14:10:00,
2013-06-03 09:13:00,67.4,56.9,29.21,South,183,2.2,4.0,69,0.00,,---,0.00,VWS V14.00,2013-06-03 14:13:00,
2013-06-03 09:15:00,67.4,56.9,29.21,South,183,3.1,4.0,69,0.00,,---,0.00,VWS V14.00,2013-06-03 14:15:00,
2013-06-03 09:22:00,68.2,56.8,29.21,SSE,165,3.6,4.0,67,0.00,,---,0.00,VWS V14.00,2013-06-03 14:22:00,
2013-06-03 09:25:00,68.2,56.4,29.21,SE,139,5.8,5.8,66,0.00,,---,0.00,VWS V14.00,2013-06-03 14:25:00,
2013-06-03 09:30:00,68.3,56.5,29.21,SSE,162,3.1,5.8,66,0.00,,---,0.00,VWS V14.00,2013-06-03 14:30:00,
2013-06-03 09:31:00,68.5,56.7,29.21,SE,126,3.1,4.0,66,0.00,,---,0.00,VWS V14.00,2013-06-03 14:31:00,
2013-06-03 09:34:00,68.9,56.6,29.21,South,171,5.4,5.4,65,0.00,,---,0.00,VWS V14.00,2013-06-03 14:34:00,
2013-06-03 09:37:00,69.1,56.8,29.21,South,172,3.1,5.8,65,0.00,,---,0.00,VWS V14.00,2013-06-03 14:37:00,
2013-06-03 09:40:00,69.4,57.2,29.21,South,179,2.7,5.8,65,0.00,,---,0.00,VWS V14.00,2013-06-03 14:40:00,
2013-06-03 09:43:00,69.8,57.1,29.21,SSE,165,3.6,5.8,64,0.00,,---,0.00,VWS V14.00,2013-06-03 14:43:00,
2013-06-03 09:46:00,70.0,56.8,29.21,SSW,203,3.6,3.6,63,0.00,,---,0.00,VWS V14.00,2013-06-03 14:46:00,
2013-06-03 09:50:00,70.0,56.4,29.21,SSE,167,2.2,5.4,62,0.00,,---,0.00,VWS V14.00,2013-06-03 14:50:00,
2013-06-03 09:56:00,69.8,56.2,29.21,SSE,159,4.0,5.4,62,0.00,,---,0.00,VWS V14.00,2013-06-03 14:56:00,
2013-06-03 09:59:00,70.0,56.4,29.21,SSE,163,3.6,5.4,62,0.00,,---,0.00,VWS V14.00,2013-06-03 14:59:00,
2013-06-03 10:00:00,70.0,56.4,29.21,SSE,163,3.1,5.4,62,0.00,,---,0.00,VWS V14.00,2013-06-03 15:00:00,
2013-06-03 10:05:00,70.0,55.9,29.21,South,178,3.6,5.4,61,0.00,,---,0.00,VWS V14.00,2013-06-03 15:05:00,
2013-06-03 10:08:00,70.0,55.9,29.21,South,176,4.0,5.4,61,0.00,,---,0.00,VWS V14.00,2013-06-03 15:08:00,
2013-06-03 10:11:00,70.0,55.9,29.21,South,180,5.4,5.8,61,0.00,,---,0.00,VWS V14.00,2013-06-03 15:11:00,
2013-06-03 10:15:00,69.8,55.7,29.21,SSE,168,5.8,6.3,61,0.00,,---,0.00,VWS V14.00,2013-06-03 15:15:00,
2013-06-03 10:17:00,69.8,55.7,29.21,SSE,166,3.6,5.8,61,0.00,,---,0.00,VWS V14.00,2013-06-03 15:17:00,
2013-06-03 10:20:00,70.0,55.9,29.21,SSE,163,5.4,6.3,61,0.00,,---,0.00,VWS V14.00,2013-06-03 15:20:00,
2013-06-03 10:23:00,70.1,56.1,29.21,SSE,157,3.6,6.3,61,0.00,,---,0.00,VWS V14.00,2013-06-03 15:23:00,
2013-06-03 10:26:00,70.0,55.9,29.21,SSE,168,5.4,6.3,61,0.00,,---,0.00,VWS V14.00,2013-06-03 15:26:00,
2013-06-03 10:29:00,70.0,55.9,29.21,South,169,5.8,6.3,61,0.00,,---,0.00,VWS V14.00,2013-06-03 15:29:00,
2013-06-03 10:32:00,70.1,56.1,29.21,SSE,163,4.0,5.4,61,0.00,,---,0.00,VWS V14.00,2013-06-03 15:32:00,
2013-06-03 10:38:00,70.1,56.1,29.21,South,170,4.0,5.8,61,0.00,,---,0.00,VWS V14.00,2013-06-03 15:38:00,
2013-06-03 10:44:00,70.3,56.2,29.21,SSE,167,4.9,5.8,61,0.00,,---,0.00,VWS V14.00,2013-06-03 15:44:00,
2013-06-03 10:45:00,70.5,56.9,29.21,SSE,166,4.0,5.8,62,0.00,,---,0.00,VWS V14.00,2013-06-03 15:45:00,
2013-06-03 10:47:00,70.7,57.0,29.21,South,171,4.0,5.4,62,0.00,,---,0.00,VWS V14.00,2013-06-03 15:47:00,
2013-06-03 10:50:00,70.7,56.6,29.21,South,178,3.6,5.4,61,0.00,,---,0.00,VWS V14.00,2013-06-03 15:50:00,
2013-06-03 10:53:00,70.7,56.6,29.21,SSE,153,3.6,5.4,61,0.00,,---,0.00,VWS V14.00,2013-06-03 15:53:00,
2013-06-03 10:56:00,70.7,56.1,29.21,South,177,3.6,5.4,60,0.00,,---,0.00,VWS V14.00,2013-06-03 15:56:00,
2013-06-03 10:59:00,70.9,56.3,29.21,South,177,3.1,5.4,60,0.00,,---,0.00,VWS V14.00,2013-06-03 15:59:00,
2013-06-03 11:05:00,71.6,56.5,29.21,South,178,4.0,5.4,59,0.00,,---,0.00,VWS V14.00,2013-06-03 16:05:00,
2013-06-03 11:08:00,71.8,56.2,29.21,South,173,4.0,5.8,58,0.00,,---,0.00,VWS V14.00,2013-06-03 16:08:00,
2013-06-03 11:14:00,71.6,56.0,29.21,South,175,3.1,5.8,58,0.00,,---,0.00,VWS V14.00,2013-06-03 16:14:00,
2013-06-03 11:17:00,71.9,56.4,29.21,South,175,3.6,4.5,58,0.00,,---,0.00,VWS V14.00,2013-06-03 16:17:00,
2013-06-03 11:20:00,72.1,56.5,29.21,South,175,3.1,5.4,58,0.00,,---,0.00,VWS V14.00,2013-06-03 16:20:00,
2013-06-03 11:23:00,72.5,56.4,29.21,SSE,167,4.0,5.4,57,0.00,,---,0.00,VWS V14.00,2013-06-03 16:23:00,
2013-06-03 11:26:00,72.5,56.4,29.21,South,169,3.1,5.4,57,0.00,,---,0.00,VWS V14.00,2013-06-03 16:26:00,
2013-06-03 11:29:00,72.7,56.6,29.21,South,171,3.1,5.4,57,0.00,,---,0.00,VWS V14.00,2013-06-03 16:29:00,
2013-06-03 11:32:00,72.8,56.2,29.21,South,176,5.4,5.8,56,0.00,,---,0.00,VWS V14.00,2013-06-03 16:32:00,
2013-06-03 11:38:00,72.7,55.6,29.21,South,169,2.7,5.8,55,0.00,,---,0.00,VWS V14.00,2013-06-03 16:38:00,
2013-06-03 11:41:00,72.8,55.8,29.18,South,175,2.2,5.8,55,0.00,,---,0.00,VWS V14.00,2013-06-03 16:41:00,
2013-06-03 11:44:00,73.0,55.9,29.18,South,173,4.9,5.8,55,0.00,,---,0.00,VWS V14.00,2013-06-03 16:44:00,
2013-06-03 11:47:00,73.0,55.9,29.18,South,185,5.4,6.3,55,0.00,,---,0.00,VWS V14.00,2013-06-03 16:47:00,
2013-06-03 11:53:00,73.2,55.6,29.18,SSE,165,4.0,6.3,54,0.00,,---,0.00,VWS V14.00,2013-06-03 16:53:00,
2013-06-03 11:56:00,73.2,55.6,29.18,South,173,3.1,6.3,54,0.00,,---,0.00,VWS V14.00,2013-06-03 16:56:00,
2013-06-03 11:59:00,73.6,55.4,29.18,South,176,0.0,6.3,53,0.00,,---,0.00,VWS V14.00,2013-06-03 16:59:00,
2013-06-03 12:00:00,73.6,55.4,29.18,South,176,2.7,6.3,53,0.00,,---,0.00,VWS V14.00,2013-06-03 17:00:00,
2013-06-03 12:02:00,73.7,56.1,29.18,South,175,2.7,4.9,54,0.00,,---,0.00,VWS V14.00,2013-06-03 17:02:00,
2013-06-03 12:05:00,73.9,55.7,29.18,South,191,2.7,4.9,53,0.00,,---,0.00,VWS V14.00,2013-06-03 17:05:00,
2013-06-03 12:08:00,74.1,56.4,29.18,SSE,157,2.2,4.9,54,0.00,,---,0.00,VWS V14.00,2013-06-03 17:08:00,
2013-06-03 12:11:00,74.3,56.1,29.18,SSE,157,2.2,4.9,53,0.00,,---,0.00,VWS V14.00,2013-06-03 17:11:00,
2013-06-03 12:14:00,74.5,56.2,29.18,SSE,163,3.1,4.9,53,0.00,,---,0.00,VWS V14.00,2013-06-03 17:14:00,
2013-06-03 12:15:00,74.5,56.2,29.18,SSE,163,3.6,4.9,53,0.00,,---,0.00,VWS V14.00,2013-06-03 17:15:00,
2013-06-03 12:17:00,74.6,55.9,29.18,SSE,157,3.1,4.0,52,0.00,,---,0.00,VWS V14.00,2013-06-03 17:17:00,
2013-06-03 12:20:00,74.8,56.0,29.21,South,178,3.1,5.4,52,0.00,,---,0.00,VWS V14.00,2013-06-03 17:20:00,
2013-06-03 12:23:00,74.8,56.0,29.21,South,177,3.1,5.4,52,0.00,,---,0.00,VWS V14.00,2013-06-03 17:23:00,
2013-06-03 12:26:00,74.8,56.0,29.21,South,177,3.6,5.4,52,0.00,,---,0.00,VWS V14.00,2013-06-03 17:26:00,
2013-06-03 12:29:00,74.8,56.0,29.21,South,178,4.9,5.4,52,0.00,,---,0.00,VWS V14.00,2013-06-03 17:29:00,
2013-06-03 12:30:00,74.8,56.0,29.21,South,178,3.6,5.4,52,0.00,,---,0.00,VWS V14.00,2013-06-03 17:30:00,
2013-06-03 12:32:00,74.8,56.0,29.21,South,179,3.6,4.0,52,0.00,,---,0.00,VWS V14.00,2013-06-03 17:32:00,
2013-06-03 12:38:00,75.2,55.3,29.21,South,186,3.1,5.4,50,0.00,,---,0.00,VWS V14.00,2013-06-03 17:38:00,
2013-06-03 12:41:00,75.4,54.9,29.21,South,169,3.1,5.4,49,0.00,,---,0.00,VWS V14.00,2013-06-03 17:41:00,
2013-06-03 12:45:00,75.7,55.2,29.21,South,169,3.1,5.4,49,0.00,,---,0.00,VWS V14.00,2013-06-03 17:45:00,
2013-06-03 12:50:00,76.1,56.1,29.18,SSE,168,4.0,5.4,50,0.00,,---,0.00,VWS V14.00,2013-06-03 17:50:00,
2013-06-03 12:53:00,76.3,55.7,29.18,South,183,4.0,5.4,49,0.00,,---,0.00,VWS V14.00,2013-06-03 17:53:00,
2013-06-03 12:56:00,76.3,55.7,29.18,South,176,4.9,5.8,49,0.00,,---,0.00,VWS V14.00,2013-06-03 17:56:00,
2013-06-03 13:00:00,76.4,55.9,29.18,SSE,164,3.6,5.8,49,0.00,,---,0.00,VWS V14.00,2013-06-03 18:00:00,
2013-06-03 13:03:00,76.3,55.2,29.18,South,177,3.6,5.4,48,0.00,,---,0.00,VWS V14.00,2013-06-03 18:03:00,
2013-06-03 13:06:00,76.3,55.2,29.18,South,183,5.4,5.4,48,0.00,,---,0.00,VWS V14.00,2013-06-03 18:06:00,
2013-06-03 13:09:00,76.1,55.0,29.18,South,177,4.0,5.4,48,0.00,,---,0.00,VWS V14.00,2013-06-03 18:09:00,
2013-06-03 13:12:00,76.1,55.0,29.18,South,172,4.5,5.4,48,0.00,,---,0.00,VWS V14.00,2013-06-03 18:12:00,
2013-06-03 13:15:00,76.1,55.0,29.18,SSE,166,4.9,5.4,48,0.00,,---,0.00,VWS V14.00,2013-06-03 18:15:00,
2013-06-03 13:21:00,76.1,55.0,29.18,SSE,166,3.6,4.9,48,0.00,,---,0.00,VWS V14.00,2013-06-03 18:21:00,
2013-06-03 13:24:00,76.1,55.0,29.18,South,179,3.6,4.9,48,0.00,,---,0.00,VWS V14.00,2013-06-03 18:24:00,
2013-06-03 13:27:00,76.1,55.0,29.18,South,187,6.3,6.3,48,0.00,,---,0.00,VWS V14.00,2013-06-03 18:27:00,
2013-06-03 13:30:00,76.1,55.0,29.18,South,188,4.0,6.3,48,0.00,,---,0.00,VWS V14.00,2013-06-03 18:30:00,
2013-06-03 13:33:00,76.8,55.1,29.18,South,185,5.8,5.8,47,0.00,,---,0.00,VWS V14.00,2013-06-03 18:33:00,
2013-06-03 13:39:00,76.8,55.1,29.18,South,175,5.4,5.8,47,0.00,,---,0.00,VWS V14.00,2013-06-03 18:39:00,
2013-06-03 13:42:00,76.8,55.1,29.15,South,177,3.1,5.8,47,0.00,,---,0.00,VWS V14.00,2013-06-03 18:42:00,
2013-06-03 13:45:00,76.8,55.1,29.15,South,178,3.1,5.8,47,0.00,,---,0.00,VWS V14.00,2013-06-03 18:45:00,
2013-06-03 13:51:00,76.8,55.1,29.15,South,180,4.0,4.9,47,0.00,,---,0.00,VWS V14.00,2013-06-03 18:51:00,
2013-06-03 13:57:00,76.8,55.1,29.15,South,173,4.0,6.3,47,0.00,,---,0.00,VWS V14.00,2013-06-03 18:57:00,
2013-06-03 14:00:00,76.8,55.1,29.15,South,173,3.6,6.3,47,0.00,,---,0.00,VWS V14.00,2013-06-03 19:00:00,
2013-06-03 14:03:00,76.8,55.1,29.15,South,178,3.6,4.9,47,0.00,,---,0.00,VWS V14.00,2013-06-03 19:03:00,
2013-06-03 14:06:00,76.8,55.1,29.15,SSE,160,4.0,4.9,47,0.00,,---,0.00,VWS V14.00,2013-06-03 19:06:00,
2013-06-03 14:09:00,76.8,55.1,29.15,SSE,161,4.0,4.9,47,0.00,,---,0.00,VWS V14.00,2013-06-03 19:09:00,
2013-06-03 14:15:00,78.1,55.6,29.15,South,183,4.0,5.4,46,0.00,,---,0.00,VWS V14.00,2013-06-03 19:15:00,
2013-06-03 14:21:00,78.2,55.8,29.15,South,187,3.6,5.8,46,0.00,,---,0.00,VWS V14.00,2013-06-03 19:21:00,
2013-06-03 14:24:00,78.2,55.8,29.15,SSE,165,4.0,5.8,46,0.00,,---,0.00,VWS V14.00,2013-06-03 19:24:00,
2013-06-03 14:27:00,78.2,55.8,29.15,South,170,4.0,5.8,46,0.00,,---,0.00,VWS V14.00,2013-06-03 19:27:00,
2013-06-03 14:30:00,78.2,55.8,29.15,SSE,168,3.1,5.8,46,0.00,,---,0.00,VWS V14.00,2013-06-03 19:30:00,
2013-06-03 14:33:00,78.6,55.5,29.15,South,169,4.9,5.4,45,0.00,,---,0.00,VWS V14.00,2013-06-03 19:33:00,
2013-06-03 14:36:00,78.8,55.7,29.15,South,183,3.1,5.4,45,0.00,,---,0.00,VWS V14.00,2013-06-03 19:36:00,
2013-06-03 14:42:00,78.8,55.7,29.15,South,175,5.4,6.3,45,0.00,,---,0.00,VWS V14.00,2013-06-03 19:42:00,
2013-06-03 14:45:00,78.8,55.7,29.15,SSE,162,2.7,6.3,45,0.00,,---,0.00,VWS V14.00,2013-06-03 19:45:00,
2013-06-03 14:48:00,78.8,55.7,29.15,South,169,4.0,4.0,45,0.00,,---,0.00,VWS V14.00,2013-06-03 19:48:00,
2013-06-03 14:51:00,79.3,55.5,29.15,South,169,3.1,4.0,44,0.00,,---,0.00,VWS V14.00,2013-06-03 19:51:00,
2013-06-03 14:54:00,79.3,55.5,29.15,South,169,0.0,4.0,44,0.00,,---,0.00,VWS V14.00,2013-06-03 19:54:00,
2013-06-03 14:57:00,79.3,55.5,29.15,South,169,3.1,4.0,44,0.00,,---,0.00,VWS V14.00,2013-06-03 19:57:00,
2013-06-03 15:00:00,80.2,56.3,29.15,South,191,3.6,3.6,44,0.00,,---,0.00,VWS V14.00,2013-06-03 20:00:00,
2013-06-03 15:03:00,80.2,56.3,29.15,SSW,194,3.1,4.0,44,0.00,,---,0.00,VWS V14.00,2013-06-03 20:03:00,
2013-06-03 15:06:00,80.2,56.3,29.15,South,172,3.6,4.0,44,0.00,,---,0.00,VWS V14.00,2013-06-03 20:06:00,
2013-06-03 15:09:00,80.2,56.3,29.15,South,172,2.7,4.0,44,0.00,,---,0.00,VWS V14.00,2013-06-03 20:09:00,
2013-06-03 15:12:00,80.2,56.3,29.15,South,172,3.6,4.0,44,0.00,,---,0.00,VWS V14.00,2013-06-03 20:12:00,
2013-06-03 15:15:00,80.2,56.3,29.15,South,172,2.2,4.0,44,0.00,,---,0.00,VWS V14.00,2013-06-03 20:15:00,
2013-06-03 15:18:00,80.6,56.0,29.15,SSE,167,3.1,4.0,43,0.00,,---,0.00,VWS V14.00,2013-06-03 20:18:00,
2013-06-03 15:21:00,81.1,56.5,29.15,SSE,167,2.7,4.0,43,0.00,,---,0.00,VWS V14.00,2013-06-03 20:21:00,
2013-06-03 15:27:00,81.7,56.4,29.15,SSE,167,3.6,4.9,42,0.00,,---,0.00,VWS V14.00,2013-06-03 20:27:00,
2013-06-03 15:30:00,82.0,56.7,29.15,South,183,3.6,4.9,42,0.00,,---,0.00,VWS V14.00,2013-06-03 20:30:00,
2013-06-03 15:36:00,82.0,56.7,29.15,South,183,0.0,3.6,42,0.00,,---,0.00,VWS V14.00,2013-06-03 20:36:00,
2013-06-03 15:39:00,82.0,56.7,29.12,South,183,0.0,3.6,42,0.00,,---,0.00,VWS V14.00,2013-06-03 20:39:00,
2013-06-03 15:42:00,82.2,56.2,29.12,South,183,0.0,3.6,41,0.00,,---,0.00,VWS V14.00,2013-06-03 20:42:00,
2013-06-03 15:45:00,82.2,56.2,29.12,South,184,2.7,2.7,41,0.00,,---,0.00,VWS V14.00,2013-06-03 20:45:00,
2013-06-03 15:51:00,82.4,56.3,29.12,SSE,166,2.7,4.0,41,0.00,,---,0.00,VWS V14.00,2013-06-03 20:51:00,
2013-06-03 15:54:00,82.6,56.5,29.12,South,169,4.9,4.9,41,0.00,,---,0.00,VWS V14.00,2013-06-03 20:54:00,
2013-06-03 15:57:00,82.7,56.7,29.12,South,169,3.1,4.9,41,0.00,,---,0.00,VWS V14.00,2013-06-03 20:57:00,
2013-06-03 16:00:00,82.7,56.7,29.12,SSE,162,4.0,4.9,41,0.00,,---,0.00,VWS V14.00,2013-06-03 21:00:00,
2013-06-03 16:04:00,82.4,56.3,29.12,SSE,163,4.0,5.4,41,0.00,,---,0.00,VWS V14.00,2013-06-03 21:04:00,
2013-06-03 16:07:00,82.4,56.3,29.12,SSE,163,4.0,5.4,41,0.00,,---,0.00,VWS V14.00,2013-06-03 21:07:00,
2013-06-03 16:13:00,82.9,56.8,29.12,SSE,165,3.6,5.4,41,0.00,,---,0.00,VWS V14.00,2013-06-03 21:13:00,
2013-06-03 16:15:00,83.3,57.2,29.12,SSE,165,3.6,5.4,41,0.00,,---,0.00,VWS V14.00,2013-06-03 21:15:00,
2013-06-03 16:22:00,84.0,57.1,29.12,South,169,5.4,5.4,40,0.00,,---,0.00,VWS V14.00,2013-06-03 21:22:00,
2013-06-03 16:25:00,84.0,57.1,29.12,SSE,162,4.0,5.4,40,0.00,,---,0.00,VWS V14.00,2013-06-03 21:25:00,
2013-06-03 16:30:00,82.7,56.0,29.12,SSE,167,3.1,5.4,40,0.00,,---,0.00,VWS V14.00,2013-06-03 21:30:00,
2013-06-03 16:37:00,82.4,55.7,29.12,South,182,4.0,5.4,40,0.00,,---,0.00,VWS V14.00,2013-06-03 21:37:00,
2013-06-03 16:40:00,83.3,56.5,29.12,SSE,168,2.7,5.4,40,0.00,,---,0.00,VWS V14.00,2013-06-03 21:40:00,
2013-06-03 16:43:00,84.4,57.4,29.12,South,173,4.9,5.4,40,0.00,,---,0.00,VWS V14.00,2013-06-03 21:43:00,
2013-06-03 16:45:00,85.1,57.4,29.12,SSE,163,3.6,5.4,39,0.00,,---,0.00,VWS V14.00,2013-06-03 21:45:00,
2013-06-03 16:46:00,85.1,57.4,29.12,SSE,164,3.1,3.6,39,0.00,,---,0.00,VWS V14.00,2013-06-03 21:46:00,
2013-06-03 16:49:00,85.4,57.7,29.12,SSE,164,4.0,4.0,39,0.00,,---,0.00,VWS V14.00,2013-06-03 21:49:00,
2013-06-03 16:52:00,85.6,57.8,29.12,SSE,164,3.6,4.0,39,0.00,,---,0.00,VWS V14.00,2013-06-03 21:52:00,
2013-06-03 16:55:00,86.3,58.5,29.12,SSE,164,3.1,4.0,39,0.00,,---,0.00,VWS V14.00,2013-06-03 21:55:00,
2013-06-03 16:58:00,86.9,59.0,29.12,SSE,167,3.1,4.9,39,0.00,,---,0.00,VWS V14.00,2013-06-03 21:58:00,
2013-06-03 17:00:00,86.7,58.1,29.12,South,176,4.9,4.9,38,0.00,,---,0.00,VWS V14.00,2013-06-03 22:00:00,
2013-06-03 17:04:00,85.8,57.3,29.12,South,190,3.1,6.3,38,0.00,,---,0.00,VWS V14.00,2013-06-03 22:04:00,
2013-06-03 17:07:00,85.4,57.7,29.12,South,179,4.0,6.3,39,0.00,,---,0.00,VWS V14.00,2013-06-03 22:07:00,
2013-06-03 17:10:00,85.1,57.4,29.12,South,179,3.6,6.3,39,0.00,,---,0.00,VWS V14.00,2013-06-03 22:10:00,
2013-06-03 17:15:00,84.7,57.0,29.12,South,181,3.1,6.3,39,0.00,,---,0.00,VWS V14.00,2013-06-03 22:15:00,
2013-06-03 17:16:00,84.4,56.7,29.12,South,181,2.7,3.1,39,0.00,,---,0.00,VWS V14.00,2013-06-03 22:16:00,
2013-06-03 17:19:00,84.4,56.7,29.12,South,181,0.0,3.6,39,0.00,,---,0.00,VWS V14.00,2013-06-03 22:19:00,
2013-06-03 17:25:00,84.5,56.9,29.12,South,173,3.1,4.0,39,0.00,,---,0.00,VWS V14.00,2013-06-03 22:25:00,
2013-06-03 17:28:00,84.5,56.9,29.12,SSE,163,0.0,4.9,39,0.00,,---,0.00,VWS V14.00,2013-06-03 22:28:00,
2013-06-03 17:34:00,84.0,56.4,29.12,South,177,3.6,5.4,39,0.00,,---,0.00,VWS V14.00,2013-06-03 22:34:00,
2013-06-03 17:37:00,83.5,55.9,29.12,South,183,0.0,5.4,39,0.00,,---,0.00,VWS V14.00,2013-06-03 22:37:00,
2013-06-03 17:40:00,82.7,55.3,29.09,East,101,0.0,5.4,39,0.00,,---,0.00,VWS V14.00,2013-06-03 22:40:00,
2013-06-03 17:43:00,82.6,55.1,29.09,SSE,165,2.7,5.4,39,0.00,,---,0.00,VWS V14.00,2013-06-03 22:43:00,
2013-06-03 17:46:00,82.6,55.1,29.09,ENE,58,0.0,0.0,39,0.00,,---,0.00,VWS V14.00,2013-06-03 22:46:00,
2013-06-03 17:49:00,82.6,55.1,29.09,SSE,162,2.7,3.6,39,0.00,,---,0.00,VWS V14.00,2013-06-03 22:49:00,
2013-06-03 17:52:00,82.6,55.1,29.09,SSE,161,2.2,3.6,39,0.00,,---,0.00,VWS V14.00,2013-06-03 22:52:00,
2013-06-03 17:55:00,82.6,55.1,29.09,South,190,0.0,3.6,39,0.00,,---,0.00,VWS V14.00,2013-06-03 22:55:00,
2013-06-03 17:58:00,82.6,55.1,29.09,ESE,104,0.0,3.6,39,0.00,,---,0.00,VWS V14.00,2013-06-03 22:58:00,
2013-06-03 18:01:00,82.6,55.1,29.09,ESE,104,0.0,2.7,39,0.00,,---,0.00,VWS V14.00,2013-06-03 23:01:00,
2013-06-03 18:04:00,82.6,55.1,29.09,ENE,66,0.0,2.7,39,0.00,,---,0.00,VWS V14.00,2013-06-03 23:04:00,
2013-06-03 18:07:00,82.6,55.1,29.09,SSW,194,3.6,3.6,39,0.00,,---,0.00,VWS V14.00,2013-06-03 23:07:00,
2013-06-03 18:13:00,82.6,55.1,29.09,SSE,161,0.0,3.6,39,0.00,,---,0.00,VWS V14.00,2013-06-03 23:13:00,
2013-06-03 18:19:00,82.6,55.1,29.09,SSW,199,0.0,3.1,39,0.00,,---,0.00,VWS V14.00,2013-06-03 23:19:00,
2013-06-03 18:22:00,82.6,55.1,29.09,East,95,0.0,3.1,39,0.00,,---,0.00,VWS V14.00,2013-06-03 23:22:00,
2013-06-03 18:25:00,82.6,55.1,29.09,East,95,0.0,3.1,39,0.00,,---,0.00,VWS V14.00,2013-06-03 23:25:00,
2013-06-03 18:28:00,82.6,55.1,29.09,East,95,0.0,3.1,39,0.00,,---,0.00,VWS V14.00,2013-06-03 23:28:00,
2013-06-03 18:30:00,82.6,55.1,29.09,NE,41,4.0,4.0,39,0.00,,---,0.00,VWS V14.00,2013-06-03 23:30:00,
2013-06-03 18:35:00,82.6,55.1,29.09,East,99,0.0,4.0,39,0.00,,---,0.00,VWS V14.00,2013-06-03 23:35:00,
2013-06-03 18:38:00,82.6,55.1,29.09,South,175,0.0,4.0,39,0.00,,---,0.00,VWS V14.00,2013-06-03 23:38:00,
2013-06-03 18:41:00,82.6,55.1,29.09,South,175,0.0,4.0,39,0.00,,---,0.00,VWS V14.00,2013-06-03 23:41:00,
2013-06-03 18:44:00,82.6,55.1,29.09,South,184,3.6,4.9,39,0.00,,---,0.00,VWS V14.00,2013-06-03 23:44:00,
2013-06-03 18:45:00,82.6,55.1,29.09,SSW,209,0.0,4.9,39,0.00,,---,0.00,VWS V14.00,2013-06-03 23:45:00,
2013-06-03 18:47:00,82.6,55.1,29.09,East,95,0.0,2.7,39,0.00,,---,0.00,VWS V14.00,2013-06-03 23:47:00,
2013-06-03 18:50:00,82.6,55.1,29.09,SSE,162,3.1,3.1,39,0.00,,---,0.00,VWS V14.00,2013-06-03 23:50:00,
2013-06-03 18:53:00,82.6,55.1,29.09,East,100,0.0,3.6,39,0.00,,---,0.00,VWS V14.00,2013-06-03 23:53:00,
2013-06-03 18:56:00,82.6,55.1,29.09,East,100,0.0,3.6,39,0.00,,---,0.00,VWS V14.00,2013-06-03 23:56:00,
2013-06-03 18:59:00,82.6,55.1,29.09,South,172,3.1,4.9,39,0.00,,---,0.00,VWS V14.00,2013-06-03 23:59:00,
2013-06-03 19:02:00,82.6,55.1,29.09,South,172,0.0,0.0,39,0.00,,---,0.00,VWS V14.00,2013-06-04 00:02:00,
2013-06-03 19:08:00,82.6,55.1,29.09,South,172,0.0,0.0,39,0.00,,---,0.00,VWS V14.00,2013-06-04 00:08:00,
2013-06-03 19:14:00,74.8,52.7,29.09,South,178,0.0,4.0,46,0.00,,---,0.00,VWS V14.00,2013-06-04 00:14:00,
2013-06-03 19:15:00,74.8,52.7,29.09,South,178,0.0,4.0,46,0.00,,---,0.00,VWS V14.00,2013-06-04 00:15:00,
2013-06-03 19:17:00,74.8,52.7,29.09,ENE,77,0.0,0.0,46,0.00,,---,0.00,VWS V14.00,2013-06-04 00:17:00,
2013-06-03 19:20:00,74.8,52.7,29.09,South,170,0.0,2.7,46,0.00,,---,0.00,VWS V14.00,2013-06-04 00:20:00,
2013-06-03 19:26:00,74.8,52.7,29.12,ESE,114,0.0,4.5,46,0.00,,---,0.00,VWS V14.00,2013-06-04 00:26:00,
2013-06-03 19:29:00,74.8,52.7,29.12,South,185,0.0,4.5,46,0.00,,---,0.00,VWS V14.00,2013-06-04 00:29:00,
2013-06-03 19:30:00,74.8,52.7,29.12,South,185,0.0,4.5,46,0.00,,---,0.00,VWS V14.00,2013-06-04 00:30:00,
2013-06-03 19:32:00,74.8,52.7,29.12,South,185,0.0,0.0,46,0.00,,---,0.00,VWS V14.00,2013-06-04 00:32:00,
2013-06-03 19:38:00,74.8,52.7,29.12,SSE,163,0.0,2.7,46,0.00,,---,0.00,VWS V14.00,2013-06-04 00:38:00,
2013-06-03 19:41:00,74.8,52.7,29.12,SSE,163,0.0,2.7,46,0.00,,---,0.00,VWS V14.00,2013-06-04 00:41:00,
2013-06-03 19:44:00,74.8,52.7,29.12,SSE,163,0.0,2.7,46,0.00,,---,0.00,VWS V14.00,2013-06-04 00:44:00,
2013-06-03 19:47:00,74.8,52.7,29.12,SSE,163,0.0,0.0,46,0.00,,---,0.00,VWS V14.00,2013-06-04 00:47:00,
2013-06-03 19:50:00,74.8,52.7,29.12,SSE,163,0.0,0.0,46,0.00,,---,0.00,VWS V14.00,2013-06-04 00:50:00,
2013-06-03 19:53:00,74.8,52.7,29.12,SSE,163,0.0,0.0,46,0.00,,---,0.00,VWS V14.00,2013-06-04 00:53:00,
2013-06-03 19:56:00,74.8,52.7,29.12,SSE,163,0.0,0.0,46,0.00,,---,0.00,VWS V14.00,2013-06-04 00:56:00,
2013-06-03 20:02:00,74.8,52.7,29.12,SSE,163,0.0,0.0,46,0.00,,---,0.00,VWS V14.00,2013-06-04 01:02:00,
2013-06-03 20:05:00,74.8,52.7,29.12,SSE,163,0.0,0.0,46,0.00,,---,0.00,VWS V14.00,2013-06-04 01:05:00,
2013-06-03 20:08:00,74.8,52.7,29.12,SSE,163,0.0,0.0,46,0.00,,---,0.00,VWS V14.00,2013-06-04 01:08:00,
2013-06-03 20:14:00,74.8,52.7,29.12,SSE,163,0.0,0.0,46,0.00,,---,0.00,VWS V14.00,2013-06-04 01:14:00,
2013-06-03 20:15:00,74.8,52.7,29.12,SSE,163,0.0,0.0,46,0.00,,---,0.00,VWS V14.00,2013-06-04 01:15:00,
2013-06-03 20:20:00,74.8,52.7,29.12,SSE,163,0.0,0.0,46,0.00,,---,0.00,VWS V14.00,2013-06-04 01:20:00,
2013-06-03 20:23:00,74.8,52.7,29.12,SSE,163,0.0,0.0,46,0.00,,---,0.00,VWS V14.00,2013-06-04 01:23:00,
2013-06-03 20:26:00,74.8,52.7,29.12,SSE,163,0.0,0.0,46,0.00,,---,0.00,VWS V14.00,2013-06-04 01:26:00,
2013-06-03 20:29:00,74.8,52.7,29.12,SSE,162,0.0,0.0,46,0.00,,---,0.00,VWS V14.00,2013-06-04 01:29:00,
2013-06-03 20:30:00,74.8,52.7,29.12,SSE,162,0.0,0.0,46,0.00,,---,0.00,VWS V14.00,2013-06-04 01:30:00,
2013-06-03 20:35:00,74.8,52.7,29.12,SE,127,0.0,0.0,46,0.00,,---,0.00,VWS V14.00,2013-06-04 01:35:00,
2013-06-03 20:38:00,74.8,52.7,29.12,SE,127,0.0,0.0,46,0.00,,---,0.00,VWS V14.00,2013-06-04 01:38:00,
2013-06-03 20:41:00,74.8,52.7,29.12,SE,127,0.0,0.0,46,0.00,,---,0.00,VWS V14.00,2013-06-04 01:41:00,
2013-06-03 20:45:00,74.8,52.7,29.12,SE,127,0.0,0.0,46,0.00,,---,0.00,VWS V14.00,2013-06-04 01:45:00,
2013-06-03 20:47:00,74.8,52.7,29.12,SE,127,0.0,0.0,46,0.00,,---,0.00,VWS V14.00,2013-06-04 01:47:00,
2013-06-03 20:53:00,74.8,52.7,29.12,SE,127,0.0,0.0,46,0.00,,---,0.00,VWS V14.00,2013-06-04 01:53:00,
2013-06-03 20:56:00,74.8,52.7,29.12,WSW,239,0.0,0.0,46,0.00,,---,0.00,VWS V14.00,2013-06-04 01:56:00,
2013-06-03 20:59:00,74.8,52.7,29.12,WSW,239,0.0,0.0,46,0.00,,---,0.00,VWS V14.00,2013-06-04 01:59:00,
2013-06-03 21:00:00,74.8,52.7,29.12,WSW,239,0.0,0.0,46,0.00,,---,0.00,VWS V14.00,2013-06-04 02:00:00,
2013-06-03 21:02:00,74.8,52.7,29.12,SSE,163,0.0,0.0,46,0.00,,---,0.00,VWS V14.00,2013-06-04 02:02:00,
2013-06-03 21:05:00,74.8,52.7,29.12,WSW,237,0.0,2.7,46,0.00,,---,0.00,VWS V14.00,2013-06-04 02:05:00,
2013-06-03 21:09:00,74.8,52.7,29.12,East,93,2.7,2.7,46,0.00,,---,0.00,VWS V14.00,2013-06-04 02:09:00,
2013-06-03 21:12:00,74.8,52.7,29.12,ESE,114,0.0,3.1,46,0.00,,---,0.00,VWS V14.00,2013-06-04 02:12:00,
2013-06-03 21:15:00,74.8,52.7,29.12,SE,130,0.0,3.1,46,0.00,,---,0.00,VWS V14.00,2013-06-04 02:15:00,
2013-06-03 21:18:00,74.8,52.7,29.12,WSW,237,2.7,2.7,46,0.00,,---,0.00,VWS V14.00,2013-06-04 02:18:00,
2013-06-03 21:21:00,74.8,52.7,29.12,WSW,237,0.0,2.7,46,0.00,,---,0.00,VWS V14.00,2013-06-04 02:21:00,
2013-06-03 21:24:00,74.8,52.7,29.12,South,187,0.0,2.7,46,0.00,,---,0.00,VWS V14.00,2013-06-04 02:24:00,
2013-06-03 21:27:00,74.8,52.7,29.12,South,187,0.0,2.7,46,0.00,,---,0.00,VWS V14.00,2013-06-04 02:27:00,
2013-06-03 21:30:00,74.8,52.7,29.12,SSE,154,2.2,3.1,46,0.00,,---,0.00,VWS V14.00,2013-06-04 02:30:00,
2013-06-03 21:33:00,74.8,52.7,29.12,SSE,159,0.0,2.7,46,0.00,,---,0.00,VWS V14.00,2013-06-04 02:33:00,
2013-06-03 21:36:00,74.8,52.7,29.12,SSE,159,0.0,2.7,46,0.00,,---,0.00,VWS V14.00,2013-06-04 02:36:00,
2013-06-03 21:39:00,74.8,52.7,29.12,SSE,166,0.0,2.7,46,0.00,,---,0.00,VWS V14.00,2013-06-04 02:39:00,
2013-06-03 21:42:00,74.8,52.7,29.12,SSE,166,0.0,2.7,46,0.00,,---,0.00,VWS V14.00,2013-06-04 02:42:00,
2013-06-03 21:45:00,74.8,52.7,29.12,South,179,2.7,3.6,46,0.00,,---,0.00,VWS V14.00,2013-06-04 02:45:00,
2013-06-03 21:48:00,74.8,52.7,29.12,South,179,2.2,3.6,46,0.00,,---,0.00,VWS V14.00,2013-06-04 02:48:00,
2013-06-03 21:51:00,74.8,52.7,29.12,South,178,2.7,4.0,46,0.00,,---,0.00,VWS V14.00,2013-06-04 02:51:00,
2013-06-03 21:54:00,67.4,56.1,29.12,South,174,0.0,4.0,67,0.00,,---,0.00,VWS V14.00,2013-06-04 02:54:00,
2013-06-03 21:57:00,67.3,55.9,29.12,South,181,2.2,4.0,67,0.00,,---,0.00,VWS V14.00,2013-06-04 02:57:00,
2013-06-03 22:00:00,67.3,55.9,29.12,South,183,2.2,4.0,67,0.00,,---,0.00,VWS V14.00,2013-06-04 03:00:00,
2013-06-03 22:03:00,67.3,55.9,29.12,South,183,2.7,3.1,67,0.00,,---,0.00,VWS V14.00,2013-06-04 03:03:00,
2013-06-03 22:06:00,67.3,55.9,29.12,South,183,0.0,3.6,67,0.00,,---,0.00,VWS V14.00,2013-06-04 03:06:00,
2013-06-03 22:09:00,67.3,55.9,29.12,South,188,0.0,3.6,67,0.00,,---,0.00,VWS V14.00,2013-06-04 03:09:00,
2013-06-03 22:12:00,67.3,55.9,29.12,South,188,3.1,3.6,67,0.00,,---,0.00,VWS V14.00,2013-06-04 03:12:00,
2013-06-03 22:15:00,67.3,55.9,29.12,South,180,2.2,3.6,67,0.00,,---,0.00,VWS V14.00,2013-06-04 03:15:00,
2013-06-03 22:21:00,67.3,55.9,29.12,SSE,149,2.7,4.0,67,0.00,,---,0.00,VWS V14.00,2013-06-04 03:21:00,
2013-06-03 22:24:00,67.3,55.9,29.15,South,179,0.0,4.0,67,0.00,,---,0.00,VWS V14.00,2013-06-04 03:24:00,
2013-06-03 22:30:00,67.3,55.9,29.15,SE,132,0.0,4.0,67,0.00,,---,0.00,VWS V14.00,2013-06-04 03:30:00,
2013-06-03 22:33:00,67.3,55.9,29.15,SSW,195,0.0,4.0,67,0.00,,---,0.00,VWS V14.00,2013-06-04 03:33:00,
2013-06-03 22:36:00,67.3,55.9,29.15,SSW,195,0.0,4.0,67,0.00,,---,0.00,VWS V14.00,2013-06-04 03:36:00,
2013-06-03 22:39:00,67.3,55.9,29.15,ESE,115,2.2,4.0,67,0.00,,---,0.00,VWS V14.00,2013-06-04 03:39:00,
2013-06-03 22:42:00,67.3,55.9,29.15,SSE,162,2.7,4.0,67,0.00,,---,0.00,VWS V14.00,2013-06-04 03:42:00,
2013-06-03 22:45:00,67.3,55.9,29.15,SSE,162,2.7,2.7,67,0.00,,---,0.00,VWS V14.00,2013-06-04 03:45:00,
2013-06-03 22:51:00,67.3,55.9,29.15,SSE,163,0.0,4.9,67,0.00,,---,0.00,VWS V14.00,2013-06-04 03:51:00,
2013-06-03 22:57:00,67.3,55.9,29.15,SSE,166,2.7,4.9,67,0.00,,---,0.00,VWS V14.00,2013-06-04 03:57:00,
2013-06-03 23:00:00,67.3,55.9,29.15,South,182,3.6,4.9,67,0.00,,---,0.00,VWS V14.00,2013-06-04 04:00:00,
2013-06-03 23:03:00,67.3,55.9,29.15,South,182,0.0,3.6,67,0.00,,---,0.00,VWS V14.00,2013-06-04 04:03:00,
2013-06-03 23:09:00,67.3,55.9,29.15,South,181,0.0,4.9,67,0.00,,---,0.00,VWS V14.00,2013-06-04 04:09:00,
2013-06-03 23:12:00,67.3,55.9,29.15,South,169,0.0,5.8,67,0.00,,---,0.00,VWS V14.00,2013-06-04 04:12:00,
2013-06-03 23:15:00,67.3,55.9,29.15,South,173,5.4,5.8,67,0.00,,---,0.00,VWS V14.00,2013-06-04 04:15:00,
2013-06-03 23:21:00,67.3,55.9,29.15,South,181,2.7,5.4,67,0.00,,---,0.00,VWS V14.00,2013-06-04 04:21:00,
2013-06-03 23:24:00,67.3,55.9,29.15,South,181,0.0,5.4,67,0.00,,---,0.00,VWS V14.00,2013-06-04 04:24:00,
2013-06-03 23:27:00,67.3,55.9,29.15,South,181,0.0,5.4,67,0.00,,---,0.00,VWS V14.00,2013-06-04 04:27:00,
2013-06-03 23:30:00,67.3,55.9,29.15,South,180,2.7,3.6,67,0.00,,---,0.00,VWS V14.00,2013-06-04 04:30:00,
2013-06-03 23:33:00,67.3,55.9,29.15,SSE,159,3.1,4.9,67,0.00,,---,0.00,VWS V14.00,2013-06-04 04:33:00,
2013-06-03 23:39:00,67.3,55.9,29.15,South,190,2.2,4.9,67,0.00,,---,0.00,VWS V14.00,2013-06-04 04:39:00,
2013-06-03 23:42:00,67.3,55.9,29.15,SSE,158,2.7,4.9,67,0.00,,---,0.00,VWS V14.00,2013-06-04 04:42:00,
2013-06-03 23:48:00,67.3,55.9,29.15,South,183,3.6,4.0,67,0.00,,---,0.00,VWS V14.00,2013-06-04 04:48:00,
2013-06-03 23:54:00,67.3,55.9,29.15,South,187,2.7,5.4,67,0.00,,---,0.00,VWS V14.00,2013-06-04 04:54:00,
2013-06-03 23:57:00,67.3,55.9,29.15,South,187,3.6,5.4,67,0.00,,---,0.00,VWS V14.00,2013-06-04 04:57:00,